Home > Weather > Braga > Past weeks

Flag for Portugal Past Weather in Braga, Portugal — Yesterday and Last 2 Weeks

Now
56 °F

Cool.


Feels Like: 56 °F
Forecast: 59 / 85 °F
Wind: 2 mph from North

Location: Porto / Pedras Rubras

Current Time: Jun 25, 2016 at 6:24:27 AM

Latest Report: Jun 25, 2016 at 5:00 AM


Visibility: N/A

Pressure: 30.07 "Hg

Humidity: 88%

Dew Point: 53 °F

Location of BragaLocation

Past Weather in Braga — Graph

°F

Braga Temperature Yesterday

Maximum temperature yesterday: 73 °F (at 2:00 PM)
Minimum temperature yesterday: 61 °F (at 2:00 AM)
Average temperature yesterday: 65 °F

High & Low Weather Summary for the Past Weeks

 TemperatureHumidityPressure
High80 °F (Jun 21, 3:00 PM)94% (Jun 22, 9:00 AM)30.37 "Hg (Jun 22, 9:00 AM)
Low53 °F (Jun 18, 5:00 AM)45% (Jun 19, 10:00 AM)29.76 "Hg (Jun 15, 7:00 AM)
Average64 °F77%30.10 "Hg
* Reported Jun 10 4:00 AM — Jun 25 4:00 AM, Braga, Weather by CustomWeather, © 2016

Note: Actual official high and low records may vary slightly from our data, if they occured in-between our weather recording intervals... More about our weather records

Advertising

Braga Weather History for the Previous 24 Hours

Scroll right to see more
 ConditionsComfort  
Time TempWeatherWind HumidityBarometerVisibility
4:00 AM
Sat, Jun 25
56 °FCool.2 mph87%30.08 "HgN/A
3:00 AM58 °FCool.2 mph87%30.08 "HgN/A
2:00 AM58 °FCool.2 mph86%30.09 "HgN/A
1:00 AM59 °FCool.2 mph85%30.09 "HgN/A
12:00 AM60 °FCool.2 mph85%30.10 "HgN/A
11:00 PM
Fri, Jun 24
61 °FCool.3 mph84%30.11 "HgN/A
10:00 PM62 °FCool.3 mph81%30.11 "HgN/A
9:00 PM64 °FMild.7 mph76%30.10 "HgN/A
8:00 PM65 °FMild.7 mph72%30.10 "HgN/A
7:00 PM66 °FMild.9 mph71%30.11 "HgN/A
6:00 PM67 °FMild.12 mph70%30.11 "HgN/A
5:00 PM69 °FMild.9 mph69%30.12 "HgN/A
4:00 PM70 °FMild.8 mph65%30.12 "HgN/A
3:00 PM70 °FMild.9 mph66%30.13 "HgN/A
2:00 PM73 °FMild.8 mph61%30.14 "HgN/A
1:00 PM71 °FMild.7 mph66%30.15 "HgN/A
12:00 PM71 °FMild.6 mph69%30.16 "HgN/A
11:00 AM69 °FMild.3 mph71%30.16 "HgN/A
10:00 AM71 °FMild.3 mph70%30.16 "HgN/A
9:00 AM64 °FMild.2 mph89%30.16 "HgN/A
8:00 AM63 °FMild.No wind92%30.15 "HgN/A
7:00 AM61 °FCool.1 mph93%30.15 "HgN/A
6:00 AM61 °FCool.2 mph92%30.15 "HgN/A
Weather by CustomWeather, © 2016

See weather overviewHow to use our weather pages